This demonstration page uses our WeatherBlox Daily Observations layout. Learn more.

Left ArrowRight Arrow

38.80484, -77.04692

Hourly Observations for August 22, 2019

Temp ( °F °C ) Dew Point ( °F °C ) Humidity (%) Winds ( mph kmh ) Pressure ( in mb ) Visibility ( mi km ) Precip ( " mm )
12:52 am 00:52 Cloudy 78 25.6 71 21.7 79 79 SSW 5 7 29.93 1014 10 16 0.00 0.00
1:52 am 01:52 Mostly Cloudy 79 26.1 71 21.7 77 77 Calm 29.93 1013 10 16 0.00 0.00
2:52 am 02:52 Partly Cloudy 78 25.6 72 22.2 82 82 N 3 6 29.91 1013 10 16 0.00 0.00
3:52 am 03:52 Partly Cloudy 77 25 71 21.7 82 82 SW 3 6 29.91 1013 10 16 0.00 0.00
4:52 am 04:52 Partly Cloudy 77 25 70 21.1 79 79 SSW 3 6 29.89 1012 10 16 0.00 0.00
5:52 am 05:52 Partly Cloudy 77 25 70 21.1 79 79 SSW 3 6 29.91 1013 10 16 0.00 0.00
6:52 am 06:52 Partly Cloudy 76 24.4 70 21.1 82 82 WSW 3 6 29.94 1014 10 16 0.00 0.00
7:52 am 07:52 Mostly Cloudy 79 26.1 69 20.6 72 72 W 5 7 29.96 1014 10 16 0.00 0.00
8:52 am 08:52 Sunny 82 27.8 68 20 63 63 VRB 5 7 29.96 1015 10 16 0.00 0.00
9:52 am 09:52 Mostly Cloudy 86 30 68 20 55 55 NNW 10 17 29.96 1015 10 16 0.00 0.00
10:52 am 10:52 Partly Cloudy 88 31.1 67 19.4 50 50 W 13 20 29.97 1015 10 16 0.00 0.00
11:52 am 11:52 Partly Cloudy 90 32.2 67 19.4 47 47 VRB 7 11 29.96 1015 10 16 0.00 0.00
12:40 pm 12:40 Mostly Cloudy 90 32.2 67 19.4 47 47 Calm 29.95 1014 10 16 0.00 0.00
12:52 pm 12:52 Mostly Cloudy 90 32.2 66 18.9 45 45 W 3 6 29.95 1014 10 16 0.00 0.00
1:52 pm 13:52 Mostly Cloudy 93 33.9 65 18.3 40 40 NW 12 19 29.94 1014 10 16 0.00 0.00
2:52 pm 14:52 Mostly Cloudy 94 34.4 66 18.9 40 40 SW 12 19 29.91 1013 10 16 0.00 0.00
3:52 pm 15:52 Mostly Cloudy 93 33.9 69 20.6 46 46 S 8 13 29.89 1012 10 16 0.00 0.00
4:52 pm 16:52 Mostly Cloudy 92 33.3 71 21.7 51 51 S 13 20 29.87 1012 10 16 0.00 0.00
5:52 pm 17:52 Mostly Cloudy 91 32.8 68 20 47 47 SSW 13 20 29.87 1012 10 16 0.00 0.00
6:52 pm 18:52 Cloudy 88 31.1 74 23.3 63 63 S 13 20 29.86 1011 10 16 0.00 0.00
7:08 pm 19:08 Cloudy with Thunderstorms 88 31.1 73 22.8 61 61 S 10 17 29.87 1011 10 16 0.00 0.00
7:20 pm 19:20 Cloudy 88 31.1 73 22.8 61 61 S 12 19 29.87 1011 10 16 0.00 0.00
7:32 pm 19:32 Cloudy with Nearby Thunderstorms 87 30.6 72 22.2 61 61 S 12 19 29.87 1011 10 16 0.00 0.00
7:47 pm 19:47 Cloudy 88 31 73 23 62 62 S 12 19 29.88 1012 10 16 0.00 0.00
7:52 pm 19:52 Cloudy 87 30.6 74 23.3 65 65 S 13 20 29.88 1012 10 16 0.00 0.00
8:52 pm 20:52 Cloudy 86 30 73 22.8 65 65 SSW 16 26 29.90 1013 10 16 0.00 0.00
9:52 pm 21:52 Cloudy 84 28.9 69 20.6 61 61 WSW 8 13 29.94 1014 10 16 0.00 0.00
10:52 pm 22:52 Cloudy 82 27.8 68 20 63 63 S 6 9 29.94 1014 10 16 0.00 0.00
11:52 pm 23:52 Cloudy 80 26.7 68 20 67 67 SW 8 13 29.95 1014 10 16 0.00 0.00

Powered by AerisWeather